Presure
169 175 161 166 160 165 168 146 170 160 157 172 165 164 160 152 155 160 160 153 160 153 159 155 157 168 176 166 169 166 160 169 165 164 168 168 166 152 164 171 175 170 169 171 176
175 163 171 177 154 179 155 156 161 157 164 159 160 165 166 175 173 164 159 162 161 162 161 156 157 168 161 167 175 169 176 165 160 161 157 160 166 161 152 167 176 172 176 173 174
159 163 168 162 162 159 151 169 156 168 169 177 169 165 172 171 161 164 170 163 161 161 154 154 172 171 172 171 173 164 167 174 166 167 167 170 171 169 179 175 167 168 163 156 175
150 161 175 173 160 170 169 177 165 169 165 168 173 166 167 183 174 170 165 177 170 173 168 165 174 174 173 182 179 171 172 175 160 167 173 166 166 163 164 173 176 166 174 174 174
157 161 173 168 167 173 168 168 169 167 170 161 163 183 172 154 179 163 167 161 165 170 170 176 186 185 183 178 151 179 183 160 161 164 170 179 185 173 170 174 176 177 170 174 178
168 178 182 177 165 174 174 171 183 176 173 176 192 181 157 165 171 166 172 171 176 178 180 176 179 179 186 187 185 178 179 181 190 190 184 179 189 188 182 170 165 164 168 174 175
167 171 169 171 170 179 176 177 179 182 184 173 185 184 187 190 189 178 175 180 172 174 178 175 176 178 184 179 179 190 188 187 182 179 182 179 181 185 161 164 167 174 172 175 177
172 177 168 170 162 166 175 182 219 286 270 258 248 235 245 208 204 190 190 190 196 181 179 187 178 184 183 189 180 190 187 186 188 179 180 178 173 184 189 179 189 189 195 197 194
176 177 168 161 180 207 247 297 237 243 233 207 212 217 221 228 202 247 216 189 192 191 194 192 187 188 193 184 204 187 189 177 170 182 173 182 189 185 224 187 182 199 196 197 197
174 168 188 195 188 225 273 240 230 202 205 209 328 332 313 302 211 224 209 251 203 199 191 191 194 194 184 199 182 198 184 180 195 206 169 189 188 235 177 199 199 195 188 184 188
187 177 191 183 213 244 243 212 193 207 193 302 309 172 206 217 325 329 229 214 197 217 196 205 205 212 188 189 140 176 178 151 168 181 186 195 227 198 199 166 189 182 185 173 182
182 183 198 201 213 238 213 218 218 228 272 227 288 302 303 306 309 196 208 220 214 249 217 204 203 204 196 172 187 181 178 183 183 171 198 224 197 160 180 179 197 180 161 185 200
167 192 184 218 224 243 195 174 210 244 210 208 241 166 290 294 303 304 199 196 210 211 171 210 189 203 193 192 189 197 195 184 194 194 221 213 180 177 183 187 177 182 181 204 216
178 190 184 221 213 219 192 207 207 232 209 139 241 268 277 286 259 194 209 204 199 139 204 215 145 181 137 193 207 168 189 182 202 215 201 185 176 171 177 174 185 180 191 255 264
187 184 204 206 136 189 194 213 206 211 212 208 213 254 264 224 280 283 287 167 213 196 187 194 200 130 207 204 137 192 144 140 164 203 163 167 171 190 171 183 194 219 243 260 260
200 195 201 173 207 175 195 153 209 201 226 206 213 212 212 212 179 161 160 171 202 167 146 207 167 124 165 128 136 196 134 139 207 159 174 171 161 200 187 187 187 211 249 260 288
201 189 205 203 203 182 194 197 209 201 201 219 206 208 209 206 181 207 180 120 205 173 179 119 147 176 123 173 131 152 138 146 172 153 181 154 161 153 166 188 218 265 258 275 320
202 190 204 195 203 182 175 195 207 207 198 196 206 174 207 206 212 154 211 164 133 191 141 143 147 148 128 114 125 129 136 177 162 192 182 185 163 172 190 160 243 252 260 288 330
188 192 197 112 115 141 130 110 196 208 196 204 138 173 171 156 198 151 200 200 188 144 201 126 166 205 131 126 179 156 133 180 135 180 151 159 161 208 194 229 239 254 285 306 335
191 190 170 197 156 193 174 190 193 200 130 142 205 196 153 156 152 182 172 151 180 108 132 200 155 150 167 181 149 187 159 133 134 196 157 181 173 201 207 243 261 274 296 344 327
187 180 192 103 193 201 200 187 191 180 194 177 140 211 169 197 136 205 139 203 185 132 109 200 207 137 142 217 180 153 178 153 138 157 153 202 169 228 240 273 287 293 339 346 345
194 194 188 190 201 186 193 202 189 195 148 141 192 120 148 205 127 184 126 211 145 192 208 191 179 114 205 203 205 147 150 207 158 185 198 182 228 238 252 292 301 291 348 349 349
177 177 192 177 202 163 188 190 190 194 145 179 145 142 139 146 197 138 199 174 171 206 209 206 166 196 172 146 133 139 199 195 173 160 218 166 224 206 268 280 283 328 317 355 335
178 185 205 189 195 189 193 191 192 190 160 146 162 189 149 137 178 204 165 150 135 166 127 151 192 174 174 199 185 194 167 185 211 197 189 184 232 280 288 281 282 332 310 354 323
227 187 217 193 190 193 192 180 196 195 151 127 195 140 139 142 159 187 145 203 150 185 140 136 180 195 204 197 198 215 201 200 223 230 162 214 266 291 295 285 318 329 333 312 324
217 191 202 191 186 167 188 195 202 197 190 138 190 133 124 138 137 122 194 205 151 120 141 191 174 211 202 199 176 166 227 157 163 255 174 259 291 310 286 294 319 351 360 344 333
221 175 207 183 181 188 194 190 194 193 191 196 189 162 129 131 202 150 161 145 142 132 126 184 213 209 189 190 212 220 231 251 259 272 268 285 270 309 296 326 316 356 336 330 349
Wind_Speed
21 21 25 24 29 28 27 34 27 34 35 29 34 35 39 41 41 37 34 39 37 39 35 36 36 39 42 43 46 47 46 48 47 46 49 50 48 43 49 57 55 53 52 54 59
23 28 26 26 35 30 37 39 35 35 38 40 41 39 38 35 38 39 40 37 39 40 39 38 39 41 40 44 46 47 48 48 47 48 48 50 54 52 47 57 62 61 60 60 65
32 32 33 36 38 39 37 40 44 42 41 41 42 42 40 40 43 42 40 39 40 41 42 42 43 43 45 46 48 47 48 50 50 52 56 59 59 58 62 62 63 64 60 54 69
31 36 38 40 40 42 43 43 46 45 45 44 44 43 41 44 43 41 40 43 41 42 42 43 44 46 45 47 48 48 49 51 48 52 56 58 58 58 59 66 68 63 68 72 72
37 40 41 42 44 43 47 47 43 45 48 43 45 49 45 35 46 39 41 38 40 42 41 45 48 45 45 44 39 48 49 48 48 51 55 61 63 63 61 63 66 68 71 72 72
42 41 40 42 44 44 47 48 49 50 46 49 52 50 38 44 46 43 44 43 46 45 45 43 44 44 46 45 45 46 49 52 52 51 53 59 60 60 58 58 61 65 72 72 74
42 43 42 42 44 49 49 51 52 51 49 46 51 50 53 54 53 49 47 50 42 43 46 42 43 43 45 44 45 49 50 50 48 50 52 56 57 55 57 59 65 69 71 73 78
43 44 44 45 41 42 46 52 51 42 46 49 49 48 48 53 55 53 54 53 56 48 46 51 45 47 44 47 46 49 48 49 50 48 51 51 56 57 59 61 66 69 70 74 80
45 46 45 43 50 50 54 45 42 43 45 44 45 47 49 50 45 51 54 48 50 49 51 50 48 46 46 45 51 46 49 47 41 48 50 51 60 65 56 63 65 66 73 78 84
43 46 43 47 46 49 47 38 40 43 41 42 31 24 25 24 42 48 46 48 50 49 46 45 46 47 43 47 45 48 46 49 53 52 46 56 62 55 63 60 61 67 76 78 83
44 46 44 46 48 48 38 37 40 40 38 36 33 28 34 36 18 19 43 42 41 46 44 46 48 48 43 44 28 42 47 37 43 52 58 58 54 60 60 53 67 74 79 61 69
46 45 44 47 44 46 36 36 36 37 36 31 33 29 25 22 20 27 26 36 39 38 41 43 43 44 43 38 46 44 43 46 55 52 57 53 54 51 60 64 67 68 56 78 81
48 45 47 49 46 43 37 24 34 37 29 28 28 13 27 24 23 22 26 29 32 34 26 39 35 43 42 44 47 47 49 52 54 58 58 45 60 67 67 64 67 68 75 82 85
50 45 46 43 43 39 36 37 32 34 30 18 27 27 25 23 20 19 24 29 30 17 33 39 23 38 26 44 47 30 50 50 53 53 52 53 55 66 67 59 76 74 85 90 91
46 46 42 43 21 36 35 35 33 31 27 27 24 24 22 19 17 18 20 21 32 31 31 38 41 20 41 43 24 49 17 24 43 51 44 56 59 70 58 76 86 88 90 89 91
44 44 44 33 43 33 34 23 34 30 30 26 25 22 21 21 21 20 22 20 31 24 20 37 29 17 27 26 29 44 29 28 51 41 50 61 55 72 63 74 77 87 90 92 94
44 46 43 42 39 37 34 33 34 31 28 28 26 25 24 24 24 26 25 13 31 30 34 9 23 33 28 40 30 37 29 26 48 39 64 49 55 54 53 68 82 94 93 97 95
50 44 41 45 39 38 31 32 32 33 31 27 28 24 26 27 26 17 28 26 27 35 26 22 29 20 32 25 34 33 31 50 48 52 64 69 61 69 72 52 92 95 95 100 92
52 48 42 27 25 27 23 21 34 34 33 30 26 27 29 25 30 25 33 34 36 26 40 34 39 49 31 29 46 34 31 44 36 58 49 59 75 84 80 92 94 100 103 98 86
52 51 43 46 35 42 39 39 36 36 27 29 33 34 27 26 32 33 33 27 33 15 30 43 31 27 39 41 39 46 44 37 40 60 47 63 84 81 88 102 102 102 99 86 82
55 53 51 27 47 45 45 42 40 35 36 34 31 36 33 37 31 41 31 41 38 29 19 43 50 35 29 54 47 41 56 47 42 39 41 69 75 88 99 103 100 99 91 81 75
58 55 55 52 51 49 47 47 44 41 34 33 39 28 30 39 27 38 29 43 28 42 48 46 40 23 54 53 53 37 41 67 41 67 74 63 85 96 102 97 97 94 87 79 74
59 57 60 52 54 43 51 50 48 46 38 42 33 34 34 32 44 32 47 41 36 45 49 50 46 48 50 27 45 43 61 67 68 59 79 60 84 79 100 97 95 93 85 75 71
62 62 65 61 58 55 57 56 54 49 42 39 40 45 35 33 41 50 43 31 32 41 28 40 49 50 44 53 49 55 57 61 70 72 70 71 91 102 93 92 92 89 82 74 71
78 68 75 64 61 59 60 56 60 54 43 28 54 36 35 34 41 49 34 54 33 53 32 36 49 49 56 56 51 72 71 73 85 93 57 79 99 99 93 91 93 87 80 74 70
76 73 73 67 63 53 62 67 66 60 57 39 57 34 27 36 35 26 55 59 38 31 28 52 47 58 54 53 58 58 92 45 63 104 63 98 98 97 89 91 89 84 74 68 66
87 66 77 67 65 66 70 67 68 64 61 64 57 49 35 36 65 40 45 37 35 30 32 52 62 56 52 54 70 80 97 101 100 99 101 103 95 95 89 89 84 77 71 69 61
Wind_Direction
257 260 249 249 248 246 248 269 250 248 253 252 245 243 247 252 250 249 243 253 253 258 254 256 260 261 257 258 261 261 266 265 267 271 270 270 266 260 271 273 271 267 264 265 265
265 257 255 263 259 264 259 257 257 259 249 252 249 249 245 251 250 243 243 243 248 251 253 258 258 260 261 264 262 261 261 264 270 271 271 269 272 264 268 274 268 271 268 270 270
262 254 252 252 253 258 275 250 268 253 253 261 249 246 249 247 249 248 248 245 249 253 259 262 263 262 262 262 262 264 266 264 266 269 270 270 269 272 267 267 268 271 275 269 269
281 264 260 257 265 260 258 265 257 257 259 258 256 255 254 259 255 254 257 254 254 255 258 260 263 262 263 263 262 264 265 264 272 271 269 273 272 272 275 271 270 273 270 268 265
271 272 265 264 266 267 264 269 266 271 265 272 271 263 263 274 258 270 264 270 267 263 263 264 264 265 264 265 270 265 266 269 270 269 267 265 264 269 272 270 270 270 270 268 267
268 272 274 271 271 271 270 271 270 269 272 273 269 269 272 272 270 271 268 270 268 268 267 269 268 269 268 267 266 266 265 266 267 268 266 265 266 266 267 269 268 266 267 267 266
269 270 271 271 273 274 273 276 277 279 280 276 277 273 271 269 267 267 269 267 270 271 271 272 271 271 269 269 269 271 267 268 266 267 269 269 272 270 270 270 269 269 268 268 267
272 272 276 277 279 283 284 281 288 293 287 282 278 272 268 266 263 265 264 265 262 268 270 269 270 272 272 273 271 272 272 272 272 272 274 276 278 277 275 274 273 276 276 274 271
274 274 276 284 278 287 300 309 292 290 285 279 275 272 268 264 262 256 257 264 263 264 264 265 267 269 272 270 273 273 274 274 278 276 281 280 279 279 282 277 279 278 275 274 274
276 279 279 287 285 300 311 296 292 287 285 284 319 319 297 288 267 260 260 252 260 262 262 263 265 267 267 269 270 272 273 276 277 277 281 280 277 284 283 279 277 273 274 281 278
279 276 285 281 297 309 301 290 290 289 284 326 328 267 274 272 298 276 256 258 260 258 261 263 264 265 266 266 286 278 278 287 287 286 282 281 285 280 279 279 277 283 282 289 296
274 278 290 290 296 306 290 295 296 305 322 306 330 329 322 316 298 257 263 260 260 257 258 260 264 266 269 277 274 278 284 282 282 286 276 284 281 286 287 289 283 293 286 295 299
279 285 280 298 299 306 288 285 297 316 296 296 310 282 323 314 305 287 249 252 259 260 275 264 269 267 269 273 279 276 277 281 278 282 290 281 282 289 290 288 302 295 301 299 302
273 283 279 296 294 297 288 294 293 311 295 269 317 325 321 316 291 283 254 257 259 287 266 268 271 277 296 277 272 292 279 287 283 288 283 287 291 304 301 311 294 304 297 307 305
272 278 287 285 247 282 288 295 293 300 296 296 297 318 321 287 307 292 275 271 262 268 275 275 272 289 272 274 288 285 306 304 306 282 310 306 297 282 312 297 291 299 307 308 307
278 276 281 272 284 275 287 271 292 293 304 293 297 293 289 286 265 259 273 273 270 282 295 272 274 315 279 306 295 285 299 306 285 299 304 294 317 291 305 304 308 304 310 311 314
273 269 280 276 280 274 281 286 289 288 291 296 289 289 286 281 274 273 267 298 276 287 289 331 271 282 300 296 300 293 300 317 293 327 289 317 319 316 322 318 312 317 312 317 320
267 265 277 271 275 271 272 279 285 285 282 283 289 267 286 283 282 274 279 286 270 284 261 262 296 288 296 330 319 306 302 289 309 284 285 294 322 314 320 308 314 314 316 319 320
259 264 265 233 234 252 242 236 278 282 277 281 253 266 272 258 280 263 280 280 283 268 283 286 295 287 280 320 296 312 304 299 307 296 312 307 316 304 320 309 316 316 320 321 321
252 257 252 264 258 266 265 271 273 277 257 245 280 276 250 259 260 279 280 269 277 304 278 283 300 279 285 296 309 296 306 310 311 302 322 300 301 315 311 316 317 319 321 322 321
249 254 257 239 260 266 267 266 268 268 274 267 251 282 265 280 256 284 255 284 282 273 313 290 289 284 290 294 293 311 304 302 306 328 316 304 312 313 315 320 319 321 323 321 320
251 255 255 257 260 258 261 266 265 267 257 251 273 255 254 280 275 276 273 289 275 285 291 288 290 312 297 294 299 302 321 302 323 297 300 316 315 315 318 321 321 321 325 323 321
252 252 254 252 260 253 260 261 262 265 253 266 258 255 259 261 278 252 283 281 285 288 288 292 286 298 306 293 290 292 301 295 307 323 312 307 313 314 320 322 321 324 323 322 322
251 252 254 253 254 255 260 260 261 261 258 251 264 270 258 265 273 280 276 279 257 290 295 299 293 293 299 288 298 291 315 312 302 293 314 317 315 319 321 319 319 323 322 322 322
259 251 259 252 254 256 258 257 262 263 251 264 271 262 264 269 274 277 273 284 283 284 293 287 298 294 299 293 302 311 303 305 315 316 313 319 319 320 321 320 323 323 323 321 322
257 253 255 254 256 253 257 260 263 263 262 256 268 263 269 274 276 273 281 287 282 283 290 291 292 300 300 299 306 312 309 320 318 315 315 317 321 321 321 321 323 323 320 320 321
255 250 257 255 257 257 258 261 263 264 265 268 267 266 270 276 280 278 281 281 280 275 279 295 298 298 289 303 308 310 308 311 314 316 317 319 319 322 320 324 322 323 321 322 320